Weather in Kobyzhcha

Ukraine / Chernihiv Region     50°49′36″N   31°30′19″E
temp.,
°C
wind,
m/s
gust,
m/s
humid.,
%
clouds,
%
prec.,
mm/h
press.,
hPa
HPBL,
m
17 september, fri
fri1700:00+12ese475469 0.0 1018111
03:00+12se3852100 0.0 1017182
06:00+13sse3854100 0.0 1015209
09:00+15sse5946100 0.0 1014307
12:00+19sse5942100 0.0 1013568
15:00+24s784084 0.0 10101479
18:00+21s61150100 0.0 1009637
21:00+17sse41279100 0.6 1008388
18 september, sat
sat1800:00+17sse61281100 0.2 1007407
03:00+16sse41091100 0.6 1007411
06:00+17s51096100 0.3 1006509
09:00+17sse61088100 0.7 1005603
12:00+18sse61190100 0.8 1005764
15:00+17s6108699 1.8 1005642
18:00+17w467156 0.1 1006571
21:00+14wsw238184 0.1 100743
19 september, sun
sun1900:00+14nw2480100 0.0 1007277
03:00+11w35885 0.0 1008132
06:00+9wsw34945 0.0 100882
09:00+12sw237677 0.0 1008305
12:00+17s456286 0.0 10081132
15:00+17s4665100 1.0 1006933
18:00+9w71094100 7.4 1006405
21:00+8wsw488773 8.3 1008642
20 september, mon
mon2000:00+8sw5888100 0.1 1007586
03:00+8sw578799 0.1 1007595
06:00+7sw4686100 0.0 1007667
09:00+7ssw4587100 0.1 1007514
12:00+8ssw4587100 0.1 1008548
15:00+9wsw2388100 0.1 1009467
18:00+8wnw5892100 0.1 1011680
21:00+8wnw61090100 0.3 1012672
21 september, tue
tue2100:00+8w6989100 0.1 1013676
03:00+7w5889100 0.1 1014722
06:00+7w5887100 0.1 1014718
09:00+6w5984100 0.1 1014821
12:00+7w6876100 0.1 10141021
15:00+8w6874100 0.3 10151067
18:00+6w5885100 0.3 1015863
21:00+5w4788100 0.4 1015844